Location: Sungai Jaoh
(2.9167°N, 113.9167°E)
Time: 06:48:32
(UTC+00:00)

Hubble Space Telescope - Pass Details

Date: 30 November 2020
Orbit: 536 x 539 km, 28.5° (Epoch: 25 January)

Event Time Altitude Azimuth Distance (km) Brightness Sun altitude
Exits shadow 20:48:02 18° 214° (SW) 1,359 2.7 -20.9°
Maximum altitude 20:48:17 18° 209° (SSW) 1,355 2.7 -20.8°
Drops below altitude 10° 20:51:08 10° 166° (SSE) 1,783 3.9 -20.1°
Sets 20:53:58 0° 146° (SE) 2,675 5.3 -19.5°
